| Date | Time | Temp. (oF) | Dew Point (oF) | Rel. Hum. (%) | Press. (in.) | Wind Dir. | Wind Speed (mph) | Hourly Rainfall (in.) |
|
|---|---|---|---|---|---|---|---|---|---|
| 1 | 01/06 | 00:00 | 27 | 17 | 66 | 30.04 | NNW | 1 | 0.00 |
| 2 | 01/05 | 23:00 | 28 | 15 | 58 | 30.06 | NNW | 1 | 0.00 |
| 3 | 01/05 | 22:00 | 30 | 15 | 55 | 30.06 | S | 0 | 0.00 |
| 4 | 01/05 | 21:00 | 31 | 13 | 47 | 30.07 | S | 0 | 0.00 |
| 5 | 01/05 | 20:00 | 31 | 14 | 50 | 30.08 | S | 1 | 0.00 |
| 6 | 01/05 | 19:00 | 33 | 16 | 51 | 30.08 | SSE | 3 | 0.00 |
| 7 | 01/05 | 18:00 | 35 | 15 | 45 | 30.08 | S | 0 | 0.00 |
| 8 | 01/05 | 17:00 | 37 | 16 | 43 | 30.06 | SSW | 3 | 0.00 |
| 9 | 01/05 | 16:00 | 38 | 16 | 41 | 30.07 | SSW | 3 | 0.00 |
| 10 | 01/05 | 15:00 | 38 | 16 | 42 | 30.08 | SW | 4 | 0.00 |
| 11 | 01/05 | 14:00 | 37 | 16 | 43 | 30.08 | SSW | 7 | 0.00 |
| 12 | 01/05 | 13:00 | 36 | 16 | 45 | 30.11 | SSW | 9 | 0.00 |
| 13 | 01/05 | 12:00 | 35 | 17 | 49 | 30.13 | S | 4 | 0.00 |
| 14 | 01/05 | 11:00 | 33 | 17 | 53 | 30.16 | S | 3 | 0.00 |
| 15 | 01/05 | 10:00 | 32 | 16 | 53 | 30.17 | S | 2 | 0.00 |
| 16 | 01/05 | 09:00 | 31 | 16 | 54 | 30.15 | WSW | 1 | 0.00 |
| 17 | 01/05 | 08:00 | 30 | 15 | 54 | 30.14 | SW | 5 | 0.00 |
| 18 | 01/05 | 07:00 | 29 | 14 | 54 | 30.13 | WSW | 4 | 0.00 |
| 19 | 01/05 | 06:00 | 30 | 14 | 52 | 30.12 | W | 7 | 0.00 |
| 20 | 01/05 | 05:00 | 30 | 13 | 50 | 30.11 | SW | 3 | 0.00 |
| 21 | 01/05 | 04:00 | 31 | 14 | 49 | 30.12 | SW | 2 | 0.00 |
| 22 | 01/05 | 03:00 | 30 | 13 | 49 | 30.12 | S | 3 | 0.00 |
| 23 | 01/05 | 02:00 | 30 | 13 | 49 | 30.11 | W | 1 | 0.00 |
| 24 | 01/05 | 01:00 | 30 | 13 | 50 | 30.09 | S | 3 | 0.00 |